Location: Alpha Ridge Park
(39.3209°N, 76.9128°W)
Time: 15:36:50
(UTC-04:00)

BEESAT - Pass Details

Date: 03 July 2022
Orbit: 700 x 706 km, 98.6° (Epoch: 16 August)

Event Time Altitude Azimuth Distance (km) Brightness Sun altitude
Rises 21:01:14 0° 21° (NNE) 3,103 ? -4.6°
Reaches altitude 10° 21:03:36 10° 28° (NNE) 2,181 ? -5.0°
Maximum altitude 21:08:08 42° 99° (E) 1,010 ? -5.7°
Drops below altitude 10° 21:12:37 10° 170° (S) 2,169 ? -6.4°
Sets 21:14:58 0° 177° (S) 3,083 ? -6.8°
